This is the latest recevied weather packets stored in our database for station/object K2CAT. If no packets are shown the sender has not sent any weather packets the latest 10 day(s).
| Time | Temp. | Humidity | Pressure | Rain* | Wind** | Luminosity | Snow |
|---|---|---|---|---|---|---|---|
| 1777298905 | 15° C | 59% | 1025 hPa | 0 mm | - | 88 W/m² | - |
| 1777298602 | 14.44° C | 61% | 1025 hPa | 0 mm | - | 151 W/m² | - |
| 1777298298 | 14.44° C | 60% | 1024.8 hPa | 0 mm | - | 108 W/m² | - |
| 1777297993 | 13.89° C | 61% | 1024.8 hPa | 0 mm | - | 56 W/m² | - |
| 1777297689 | 13.89° C | 67% | 1025 hPa | 0 mm | - | 118 W/m² | - |
| 1777297388 | 13.33° C | 67% | 1024.9 hPa | 0 mm | - | 192 W/m² | - |
| 1777297084 | 13.33° C | 68% | 1024.8 hPa | 0 mm | - | 60 W/m² | - |
| 1777296781 | 12.78° C | 71% | 1024.9 hPa | 0 mm | - | 295 W/m² | - |
| 1777296477 | 12.22° C | 73% | 1024.8 hPa | 0 mm | - | 106 W/m² | - |
| 1777296173 | 11.67° C | 75% | 1024.9 hPa | 0 mm | - | 187 W/m² | - |
| 1777295869 | 11.11° C | 76% | 1024.8 hPa | 0 mm | - | 52 W/m² | - |
| 1777295567 | 11.11° C | 76% | 1024.8 hPa | 0 mm | - | 76 W/m² | - |
| 1777295264 | 10.56° C | 77% | 1024.8 hPa | 0 mm | - | 60 W/m² | - |
| 1777294962 | 10.56° C | 78% | 1024.7 hPa | 0 mm | - | 82 W/m² | - |
| 1777294657 | 10° C | 79% | 1024.5 hPa | 0 mm | - | 55 W/m² | - |
| 1777294354 | 10° C | 80% | 1024.8 hPa | 0 mm | - | 53 W/m² | - |
| 1777294050 | 9.44° C | 84% | 1024.7 hPa | 0 mm | - | 65 W/m² | - |
| 1777293748 | 8.89° C | 85% | 1024.7 hPa | 0 mm | - | 95 W/m² | - |
| 1777293442 | 8.89° C | 85% | 1024.5 hPa | 0 mm | - | 44 W/m² | - |
| 1777293139 | 8.33° C | 87% | 1024.6 hPa | 0 mm | - | 76 W/m² | - |
| 1777292837 | 8.33° C | 87% | 1024.7 hPa | 0 mm | - | 38 W/m² | - |
| 1777292534 | 7.78° C | 89% | 1024.6 hPa | 0 mm | - | 39 W/m² | - |
| 1777292230 | 7.78° C | 89% | 1024.6 hPa | 0 mm | - | 35 W/m² | - |
| 1777291926 | 7.22° C | 90% | 1024.5 hPa | 0 mm | - | 38 W/m² | - |
| 1777291623 | 7.22° C | 91% | 1024.6 hPa | 0 mm | - | 35 W/m² | - |
* Rain latest hour (hover to see other rain measurements)
** Current wind speed in m/s (hover to see current wind gust speed)